Time,TemperatureF,DewpointF,PressureIn,WindDirection,WindDirectionDegrees,WindSpeedMPH,WindSpeedGustMPH,Humidity,HourlyPrecipIn,Conditions,Clouds,dailyrainin,SoftwareType,DateUTC
2013-01-20 10:43:00,51.0,40.0,29.77,SSE,157,1.0,7.0,65,0.00,,,0.00,,2013-01-20 15:43:00,
2013-01-20 10:53:00,52.0,41.0,29.77,WNW,285,0.0,8.0,65,0.00,,,0.00,,2013-01-20 15:53:00,
2013-01-20 11:33:00,56.0,41.0,29.74,SW,234,4.0,10.0,58,0.00,,,0.00,,2013-01-20 16:33:00,
2013-01-20 11:43:00,56.0,41.0,29.74,SW,234,4.0,10.0,58,0.00,,,0.00,,2013-01-20 16:43:00,
2013-01-20 11:52:00,57.0,42.0,29.74,WNW,293,2.0,10.0,57,0.00,,,0.00,,2013-01-20 16:52:00,
2013-01-20 12:03:00,59.0,43.0,29.72,West,261,2.0,12.0,56,0.00,,,0.00,,2013-01-20 17:03:00,
2013-01-20 12:13:00,59.0,43.0,29.72,West,261,2.0,12.0,56,0.00,,,0.00,,2013-01-20 17:13:00,
2013-01-20 12:22:00,59.0,42.0,29.72,SW,230,4.0,10.0,54,0.00,,,0.00,,2013-01-20 17:22:00,
2013-01-20 12:33:00,60.0,43.0,29.71,West,278,2.0,8.0,53,0.00,,,0.00,,2013-01-20 17:33:00,
2013-01-20 12:42:00,60.0,43.0,29.71,West,278,2.0,8.0,53,0.00,,,0.00,,2013-01-20 17:42:00,
2013-01-20 12:52:00,59.0,41.0,29.70,WSW,251,5.0,12.0,52,0.00,,,0.00,,2013-01-20 17:52:00,
2013-01-20 13:03:00,60.0,43.0,29.70,SW,219,3.0,12.0,53,0.00,,,0.00,,2013-01-20 18:03:00,
2013-01-20 13:13:00,59.0,41.0,29.69,NNW,341,3.0,12.0,52,0.00,,,0.00,,2013-01-20 18:13:00,
2013-01-20 13:23:00,59.0,41.0,29.69,NNW,341,3.0,12.0,52,0.00,,,0.00,,2013-01-20 18:23:00,
2013-01-20 13:33:00,60.0,43.0,29.68,WNW,303,2.0,9.0,53,0.00,,,0.00,,2013-01-20 18:33:00,
2013-01-20 13:43:00,60.0,43.0,29.68,WNW,303,2.0,9.0,53,0.00,,,0.00,,2013-01-20 18:43:00,
2013-01-20 13:53:00,61.0,44.0,29.67,WNW,300,2.0,8.0,53,0.00,,,0.00,,2013-01-20 18:53:00,
2013-01-20 14:03:00,61.0,43.0,29.67,WNW,294,2.0,13.0,52,0.00,,,0.00,,2013-01-20 19:03:00,
2013-01-20 14:12:00,61.0,43.0,29.67,WNW,294,2.0,13.0,52,0.00,,,0.00,,2013-01-20 19:12:00,
2013-01-20 14:22:00,62.0,43.0,29.67,SW,216,5.0,12.0,50,0.00,,,0.00,,2013-01-20 19:22:00,
2013-01-20 14:33:00,62.0,43.0,29.67,NW,317,2.0,8.0,50,0.00,,,0.00,,2013-01-20 19:33:00,
2013-01-20 14:43:00,62.0,43.0,29.67,NW,317,2.0,8.0,50,0.00,,,0.00,,2013-01-20 19:43:00,
2013-01-20 14:52:00,62.0,43.0,29.66,West,272,3.0,9.0,49,0.00,,,0.00,,2013-01-20 19:52:00,
2013-01-20 15:03:00,62.0,43.0,29.66,West,268,2.0,7.0,50,0.00,,,0.00,,2013-01-20 20:03:00,
2013-01-20 15:12:00,62.0,43.0,29.66,West,268,2.0,7.0,50,0.00,,,0.00,,2013-01-20 20:12:00,
2013-01-20 15:23:00,62.0,42.0,29.66,SSE,149,2.0,14.0,48,0.00,,,0.00,,2013-01-20 20:23:00,
2013-01-20 15:33:00,62.0,43.0,29.66,NNW,335,3.0,9.0,50,0.00,,,0.00,,2013-01-20 20:33:00,
2013-01-20 15:42:00,62.0,43.0,29.66,NNW,335,3.0,9.0,50,0.00,,,0.00,,2013-01-20 20:42:00,
2013-01-20 15:53:00,62.0,43.0,29.66,West,279,1.0,9.0,49,0.00,,,0.00,,2013-01-20 20:53:00,
2013-01-20 16:04:00,61.0,43.0,29.66,West,266,3.0,12.0,51,0.00,,,0.00,,2013-01-20 21:04:00,
2013-01-20 16:13:00,61.0,43.0,29.66,West,266,3.0,12.0,51,0.00,,,0.00,,2013-01-20 21:13:00,
2013-01-20 16:23:00,61.0,42.0,29.65,SSE,162,3.0,9.0,50,0.00,,,0.00,,2013-01-20 21:23:00,
2013-01-20 16:33:00,60.0,41.0,29.67,NE,38,4.0,12.0,50,0.00,,,0.00,,2013-01-20 21:33:00,
2013-01-20 16:43:00,60.0,41.0,29.67,NE,38,4.0,12.0,50,0.00,,,0.00,,2013-01-20 21:43:00,
2013-01-20 16:53:00,59.0,41.0,29.67,WNW,287,3.0,9.0,52,0.00,,,0.00,,2013-01-20 21:53:00,
2013-01-20 17:03:00,58.0,41.0,29.67,NW,315,1.0,3.0,53,0.00,,,0.00,,2013-01-20 22:03:00,
2013-01-20 17:13:00,58.0,41.0,29.67,NW,315,1.0,3.0,53,0.00,,,0.00,,2013-01-20 22:13:00,
2013-01-20 17:23:00,58.0,41.0,29.67,North,9,0.0,3.0,53,0.00,,,0.00,,2013-01-20 22:23:00,
2013-01-20 17:33:00,57.0,41.0,29.68,NNE,21,0.0,0.0,56,0.00,,,0.00,,2013-01-20 22:33:00,
2013-01-20 17:43:00,57.0,41.0,29.68,NNE,21,0.0,0.0,56,0.00,,,0.00,,2013-01-20 22:43:00,
2013-01-20 17:52:00,56.0,41.0,29.68,NW,305,0.0,3.0,56,0.00,,,0.00,,2013-01-20 22:52:00,
2013-01-20 18:03:00,54.0,40.0,29.69,NNW,330,0.0,3.0,59,0.00,,,0.00,,2013-01-20 23:03:00,
2013-01-20 18:13:00,54.0,40.0,29.69,NNW,330,0.0,3.0,59,0.00,,,0.00,,2013-01-20 23:13:00,
2013-01-20 18:23:00,53.0,40.0,29.70,WNW,287,0.0,0.0,61,0.00,,,0.00,,2013-01-20 23:23:00,
2013-01-20 18:33:00,52.0,39.0,29.71,WNW,287,0.0,0.0,62,0.00,,,0.00,,2013-01-20 23:33:00,
2013-01-20 18:43:00,52.0,39.0,29.71,WNW,287,0.0,0.0,62,0.00,,,0.00,,2013-01-20 23:43:00,
2013-01-20 18:53:00,52.0,39.0,29.72,WNW,287,0.0,0.0,62,0.00,,,0.00,,2013-01-20 23:53:00,
2013-01-20 19:03:00,51.0,39.0,29.72,WNW,287,0.0,0.0,63,0.00,,,0.00,,2013-01-21 00:03:00,
2013-01-20 19:13:00,51.0,39.0,29.72,WNW,287,0.0,0.0,63,0.00,,,0.00,,2013-01-21 00:13:00,
2013-01-20 19:23:00,50.0,39.0,29.72,WNW,287,0.0,1.0,65,0.00,,,0.00,,2013-01-21 00:23:00,
2013-01-20 19:33:00,49.0,39.0,29.74,WNW,287,0.0,2.0,68,0.00,,,0.00,,2013-01-21 00:33:00,
2013-01-20 19:43:00,49.0,39.0,29.74,WNW,287,0.0,2.0,68,0.00,,,0.00,,2013-01-21 00:43:00,
2013-01-20 19:53:00,48.0,39.0,29.74,WNW,287,0.0,0.0,70,0.00,,,0.00,,2013-01-21 00:53:00,
2013-01-20 20:03:00,47.0,38.0,29.74,WNW,287,0.0,0.0,72,0.00,,,0.00,,2013-01-21 01:03:00,
2013-01-20 20:13:00,47.0,38.0,29.74,WNW,287,0.0,0.0,72,0.00,,,0.00,,2013-01-21 01:13:00,
2013-01-20 20:23:00,47.0,38.0,29.74,WNW,287,0.0,0.0,71,0.00,,,0.00,,2013-01-21 01:23:00,
2013-01-20 20:33:00,47.0,37.0,29.75,WNW,287,0.0,0.0,69,0.00,,,0.00,,2013-01-21 01:33:00,
2013-01-20 20:43:00,47.0,37.0,29.75,WNW,287,0.0,0.0,69,0.00,,,0.00,,2013-01-21 01:43:00,
2013-01-20 20:53:00,47.0,37.0,29.75,WNW,287,0.0,0.0,69,0.00,,,0.00,,2013-01-21 01:53:00,
2013-01-20 21:03:00,46.0,37.0,29.75,WNW,287,0.0,0.0,70,0.00,,,0.00,,2013-01-21 02:03:00,
2013-01-20 21:12:00,46.0,37.0,29.75,WNW,287,0.0,0.0,70,0.00,,,0.00,,2013-01-21 02:12:00,
2013-01-20 21:23:00,45.0,36.0,29.75,WNW,287,0.0,0.0,71,0.00,,,0.00,,2013-01-21 02:23:00,
2013-01-20 21:33:00,45.0,37.0,29.76,WNW,287,0.0,0.0,72,0.00,,,0.00,,2013-01-21 02:33:00,
2013-01-20 21:43:00,45.0,37.0,29.76,WNW,287,0.0,0.0,72,0.00,,,0.00,,2013-01-21 02:43:00,
2013-01-20 21:53:00,44.0,36.0,29.76,WNW,287,0.0,0.0,72,0.00,,,0.00,,2013-01-21 02:53:00,
2013-01-20 22:03:00,44.0,36.0,29.77,WNW,287,0.0,0.0,73,0.00,,,0.00,,2013-01-21 03:03:00,
2013-01-20 22:13:00,44.0,36.0,29.77,WNW,287,0.0,0.0,73,0.00,,,0.00,,2013-01-21 03:13:00,
2013-01-20 22:23:00,43.0,36.0,29.77,WNW,287,0.0,1.0,75,0.00,,,0.00,,2013-01-21 03:23:00,
2013-01-20 22:33:00,42.0,35.0,29.77,WNW,287,0.0,0.0,75,0.00,,,0.00,,2013-01-21 03:33:00,
2013-01-20 22:43:00,42.0,35.0,29.77,WNW,287,0.0,0.0,75,0.00,,,0.00,,2013-01-21 03:43:00,
2013-01-20 22:53:00,41.0,34.0,29.78,WNW,287,0.0,0.0,77,0.00,,,0.00,,2013-01-21 03:53:00,
2013-01-20 23:03:00,40.0,34.0,29.78,WNW,287,0.0,0.0,79,0.00,,,0.00,,2013-01-21 04:03:00,
2013-01-20 23:13:00,40.0,34.0,29.78,WNW,287,0.0,0.0,79,0.00,,,0.00,,2013-01-21 04:13:00,
2013-01-20 23:23:00,40.0,34.0,29.78,WNW,287,0.0,0.0,79,0.00,,,0.00,,2013-01-21 04:23:00,
2013-01-20 23:33:00,38.0,34.0,29.78,WNW,287,0.0,0.0,84,0.00,,,0.00,,2013-01-21 04:33:00,
2013-01-20 23:43:00,38.0,34.0,29.78,WNW,287,0.0,0.0,84,0.00,,,0.00,,2013-01-21 04:43:00,
2013-01-20 23:53:00,38.0,33.0,29.77,WNW,287,0.0,0.0,83,0.00,,,0.00,,2013-01-21 04:53:00,